Santuari del Coll - Susqueda





Hora UTC 20:00
Temperatura 0.5 ºC
Humitat 95.0 %
Pressió 999.7 hPa
Pluja 0.0 mm
Velocitat vent 3.2 km/h
Direcció vent WSW

Dades diàries 2021-11-27



Hora UTC (hivern +1h; estiu +2h)
Temperatura (ºC) Humitat (%) Pressió (hPa) Velocitat vent (km/h) Precipitació (mm)
Hora UTC Aire Humitat Pressió Vel. Dir. Vel. Max Dir. Intent. màx 5 min.
00:05 0.2 95.0 1000.7 8.0 SSW 8.0 0.0
00:10 0.3 95.0 1000.6 6.4 SW 24.1 0.0
00:15 0.3 95.0 1000.5 9.7 WSW 22.5 0.0
00:20 0.3 95.0 1000.4 4.8 WSW 24.1 0.0
00:25 0.2 95.0 1000.3 14.5 WSW 24.1 0.0
00:30 0.2 95.0 1000.1 6.4 WSW 24.1 0.0
00:35 0.2 95.0 999.9 4.8 W 20.9 0.0
00:40 0.2 95.0 999.7 9.7 W 25.7 0.0
00:45 0.2 95.0 999.8 4.8 WNW 27.4 0.0
00:50 0.2 95.0 999.6 4.8 NW 27.4 0.0
00:55 0.2 95.0 999.5 16.1 W 33.8 0.0
01:00 0.2 95.0 999.4 6.4 W 33.8 0.0
01:05 0.1 95.0 999.5 30.6 WNW 41.8 0.0
01:10 0.0 95.0 999.5 14.5 W 40.2 0.0
01:15 -0.1 95.0 999.4 17.7 W 40.2 0.0
01:20 -0.1 95.0 999.4 17.7 WNW 40.2 0.0
01:25 -0.2 95.0 999.2 11.3 W 37.0 0.0
01:30 -0.3 95.0 999.1 6.4 W 32.2 0.0
01:35 -0.3 95.0 998.8 17.7 SSE 37.0 0.0
01:40 -0.3 95.0 999.0 19.3 W 38.6 0.0
01:45 -0.4 95.0 998.8 6.4 W 40.2 0.0
01:50 -0.4 95.0 998.7 16.1 WNW 33.8 0.0
01:55 -0.4 95.0 998.7 8.0 NNW 33.8 0.0
02:00 -0.5 95.0 998.5 16.1 WNW 40.2 0.0
02:05 -0.5 95.0 998.6 27.4 WSW 40.2 0.0
02:10 -0.6 95.0 998.4 12.9 NW 33.8 0.0
02:15 -0.6 95.0 998.4 27.4 WNW 33.8 0.0
02:20 -0.6 95.0 998.2 35.4 W 35.4 0.0
02:25 -0.6 95.0 998.1 6.4 NW 43.5 0.0
02:30 -0.6 95.0 998.0 20.9 NW 43.5 0.0
02:30 -0.6 95.0 998.0 9.7 N 38.6 0.0
02:35 -0.7 95.0 997.9 11.3 SSW 38.6 0.0
02:40 -0.7 95.0 997.8 17.7 WNW 49.9 0.0
02:45 -0.7 95.0 997.7 6.4 WNW 49.9 0.0
02:50 -0.8 95.0 997.7 20.9 W 38.6 0.0
02:55 -0.8 95.0 997.5 11.3 NW 41.8 0.0
03:00 -0.8 95.0 997.2 20.9 WNW 45.1 0.0
03:05 -0.9 95.0 997.3 22.5 W 45.1 0.0
03:10 -0.9 95.0 997.2 6.4 SW 38.6 0.0
03:15 -0.9 95.0 997.3 12.9 W 33.8 0.0
03:20 -0.9 95.0 997.3 22.5 W 33.8 0.0
03:25 -0.9 95.0 997.2 8.0 NNW 33.8 0.0
03:30 -1.0 95.0 997.0 8.0 SSE 27.4 0.0
03:35 -1.0 95.0 997.0 11.3 SSE 27.4 0.0
03:40 -1.1 95.0 997.0 8.0 WNW 30.6 0.0
03:45 -1.2 95.0 997.0 9.7 W 30.6 0.0
03:50 -1.2 95.0 997.1 16.1 NW 29.0 0.0
04:00 -1.3 95.0 997.0 11.3 W 29.0 0.0
04:05 -1.4 95.0 996.7 20.9 WNW 27.4 0.0
04:10 -1.4 95.0 996.8 9.7 W 32.2 0.0
04:15 -1.5 95.0 996.9 4.8 SW 38.6 0.0
04:20 -1.6 95.0 996.9 16.1 W 38.6 0.0
04:25 -1.6 95.0 996.9 8.0 WNW 38.6 0.0
04:30 -1.7 95.0 996.8 14.5 WNW 43.5 0.0
04:35 -1.7 95.0 996.7 9.7 W 43.5 0.0
04:40 -1.7 95.0 996.6 4.8 W 37.0 0.0
04:45 -1.8 95.0 996.4 8.0 WSW 38.6 0.0
04:50 -1.8 94.0 996.2 22.5 WNW 38.6 0.0
04:55 -1.8 95.0 996.4 17.7 WNW 37.0 0.0
05:00 -1.9 95.0 996.2 6.4 NNE 35.4 0.0
05:05 -1.9 95.0 996.2 4.8 WSW 33.8 0.0
05:10 -1.9 95.0 996.1 17.7 W 33.8 0.0
05:15 -1.9 95.0 996.2 16.1 WNW 29.0 0.0
05:20 -1.9 95.0 996.3 17.7 W 32.2 0.0
05:25 -1.9 95.0 996.2 6.4 W 32.2 0.0
05:30 -1.9 95.0 996.0 11.3 W 32.2 0.0
05:35 -1.8 95.0 995.8 6.4 WNW 32.2 0.0
05:40 -1.8 94.0 995.5 12.9 WNW 40.2 0.0
05:45 -1.8 94.0 995.5 16.1 W 48.3 0.0
05:50 -1.7 94.0 995.2 11.3 W 48.3 0.0
05:55 -1.8 94.0 995.5 16.1 WSW 45.1 0.0
06:00 -1.7 94.0 995.5 8.0 SW 56.3 0.0
06:00 -1.7 94.0 995.5 33.8 SW 56.3 0.0
06:10 -1.7 94.0 995.7 8.0 WSW 46.7 0.0
06:15 -1.7 95.0 995.5 25.7 NW 49.9 0.0
06:20 -1.6 95.0 995.5 14.5 WNW 49.9 0.0
06:25 -1.6 95.0 995.4 30.6 W 43.5 0.0
06:30 -1.6 95.0 995.6 22.5 W 43.5 0.0
06:35 -1.6 95.0 995.2 20.9 WNW 43.5 0.0
06:40 -1.6 95.0 995.3 37.0 WSW 46.7 0.0
06:45 -1.6 95.0 995.4 20.9 WNW 46.7 0.0
06:50 -1.6 95.0 995.3 11.3 W 57.9 0.0
06:55 -1.5 95.0 995.2 12.9 W 41.8 0.0
07:00 -1.4 94.0 995.1 27.4 WNW 51.5 0.0
07:05 -1.4 94.0 995.1 19.3 W 51.5 0.0
07:10 -1.4 94.0 994.8 24.1 NW 48.3 0.0
07:15 -1.3 94.0 995.1 19.3 W 48.3 0.0
07:20 -1.3 94.0 995.0 29.0 NW 48.3 0.0
07:25 -1.3 95.0 995.2 20.9 WNW 48.3 0.0
07:30 -1.3 95.0 995.1 12.9 WNW 43.5 0.0
07:35 -1.3 95.0 995.3 14.5 NW 41.8 0.0
07:40 -1.3 94.0 995.3 6.4 WNW 41.8 0.0
07:45 -1.2 94.0 995.2 30.6 WSW 46.7 0.0
07:50 -1.2 94.0 995.6 17.7 NNW 43.5 0.0
07:55 -1.1 94.0 995.9 3.2 NNW 40.2 0.0
08:00 -1.0 95.0 996.0 6.4 NNW 30.6 0.0
08:05 -0.9 95.0 996.1 16.1 NNE 29.0 0.0
08:10 -0.9 95.0 996.0 16.1 W 24.1 0.0
08:15 -0.9 95.0 995.7 12.9 W 37.0 0.0
08:20 -0.9 95.0 995.7 14.5 NW 37.0 0.0
08:25 -0.9 95.0 995.8 9.7 NW 32.2 0.0
08:30 -0.9 95.0 995.8 17.7 W 35.4 0.0
08:35 -0.9 94.0 996.0 9.7 W 35.4 0.0
08:40 -0.9 95.0 995.9 24.1 SSE 32.2 0.0
08:40 -0.8 94.0 996.0 16.1 WSW 30.6 0.0
08:50 -0.8 94.0 996.2 6.4 WSW 37.0 0.0
08:55 -0.8 94.0 996.2 19.3 W 37.0 0.0
09:00 -0.7 95.0 996.5 19.3 W 30.6 0.0
09:05 -0.7 95.0 996.6 3.2 SSW 30.6 0.0
09:10 -0.7 95.0 996.5 17.7 WNW 29.0 0.0
09:15 -0.6 95.0 996.8 3.2 NW 32.2 0.0
09:20 -0.5 94.0 996.7 17.7 W 32.2 0.0
09:25 -0.4 94.0 996.8 4.8 SSW 25.7 0.0
09:30 -0.4 94.0 996.8 6.4 W 27.4 0.0
09:35 -0.3 95.0 997.0 16.1 WSW 32.2 0.0
09:40 -0.2 95.0 996.9 17.7 W 32.2 0.0
09:45 -0.1 95.0 996.9 22.5 W 30.6 0.0
09:50 -0.1 94.0 996.9 16.1 WSW 24.1 0.0
09:55 -0.1 95.0 997.0 8.0 NW 29.0 0.0
10:00 -0.1 95.0 997.1 25.7 WNW 29.0 0.0
10:05 -0.1 95.0 997.2 6.4 WNW 30.6 0.0
10:10 -0.1 95.0 997.1 12.9 WNW 22.5 0.0
10:15 -0.1 95.0 997.2 14.5 WSW 27.4 0.0
10:20 -0.1 95.0 997.1 33.8 W 33.8 0.0
10:25 -0.1 95.0 997.1 22.5 WNW 35.4 0.0
10:30 -0.1 95.0 997.3 17.7 WNW 35.4 0.0
10:35 -0.1 94.0 997.2 9.7 W 30.6 0.0
10:40 -0.1 95.0 997.3 14.5 W 25.7 0.0
10:45 -0.1 95.0 997.2 8.0 WNW 30.6 0.0
10:50 -0.1 95.0 997.3 14.5 W 24.1 0.0
10:55 -0.1 95.0 997.2 12.9 WNW 25.7 0.0
10:55 -0.1 95.0 997.3 17.7 W 25.7 0.0
11:05 0.0 95.0 997.3 8.0 WSW 24.1 0.0
11:05 0.1 95.0 997.3 11.3 W 27.4 0.0
11:10 0.2 95.0 997.4 12.9 W 27.4 0.0
11:15 0.3 95.0 997.3 11.3 WNW 25.7 0.0
11:20 0.5 95.0 997.3 11.3 NW 16.1 0.0
11:25 0.6 95.0 997.2 17.7 W 25.7 0.0
11:30 0.6 95.0 997.2 16.1 W 25.7 0.0
11:35 0.7 95.0 997.4 16.1 W 25.7 0.0
11:40 0.7 95.0 997.3 11.3 WNW 25.7 0.0
11:45 0.8 95.0 997.1 4.8 WNW 25.7 0.0
11:50 0.8 95.0 997.1 8.0 WSW 27.4 0.0
11:55 0.8 95.0 997.1 16.1 WNW 27.4 0.0
12:00 0.9 95.0 997.1 12.9 WNW 27.4 0.0
12:05 0.9 95.0 997.1 14.5 NW 27.4 0.0
12:10 0.9 95.0 997.1 9.7 W 27.4 0.0
12:15 0.9 95.0 997.2 8.0 NW 24.1 0.0
12:20 0.9 95.0 997.3 9.7 W 24.1 0.0
12:25 1.1 95.0 997.3 3.2 WNW 25.7 0.0
12:30 1.2 95.0 997.3 9.7 W 25.7 0.0
12:40 1.5 95.0 997.3 4.8 W 16.1 0.0
12:45 1.4 95.0 997.3 4.8 W 19.3 0.0
12:50 1.5 95.0 997.3 4.8 WNW 19.3 0.0
12:55 1.6 95.0 997.3 11.3 WNW 19.3 0.0
13:00 1.7 95.0 997.4 1.6 WNW 14.5 0.0
13:05 1.9 95.0 997.4 4.8 NW 12.9 0.0
13:10 2.3 95.0 997.5 3.2 NW 11.3 0.0
13:15 2.6 95.0 997.7 6.4 NW 8.0 0.0
13:20 2.8 95.0 997.7 1.6 ESE 8.0 0.0
13:25 2.8 95.0 997.4 4.8 E 8.0 0.0
13:30 2.8 95.0 997.4 11.3 E 12.9 0.0
13:35 2.8 95.0 997.3 0.0 NNE 12.9 0.0
13:40 3.0 95.0 997.5 3.2 NW 9.7 0.0
13:45 3.0 95.0 997.5 3.2 NNW 9.7 0.0
13:50 2.9 95.0 997.4 0.0 NW 8.0 0.0
13:55 2.9 95.0 997.3 0.0 WNW 8.0 0.0
14:00 2.7 96.0 997.2 1.6 SE 11.3 0.0
14:05 2.6 96.0 997.4 1.6 WSW 11.3 0.0
14:10 2.7 96.0 997.5 3.2 WSW 4.8 0.0
14:15 2.6 96.0 997.6 3.2 WSW 4.8 0.0
14:20 2.6 96.0 997.6 3.2 WSW 4.8 0.0
14:25 2.6 96.0 997.5 0.0 W 4.8 0.0
14:30 2.6 95.0 997.4 3.2 SW 4.8 0.0
14:35 2.7 95.0 997.4 4.8 SE 11.3 0.0
14:40 2.6 94.0 997.7 6.4 SSE 11.3 0.0
14:45 2.6 92.0 997.8 8.0 SE 14.5 0.0
14:50 2.5 92.0 997.8 12.9 SSE 16.1 0.0
14:55 2.5 92.0 998.0 3.2 SSE 16.1 0.0
15:00 2.4 91.0 998.1 0.0 SSE 16.1 0.0
15:05 2.4 92.0 998.0 4.8 SSE 8.0 0.0
15:10 2.4 91.0 998.0 4.8 ENE 12.9 0.0
15:15 2.5 91.0 998.0 3.2 SE 12.9 0.0
15:20 2.5 90.0 998.0 3.2 SSW 8.0 0.0
15:25 2.6 90.0 998.2 3.2 NNE 9.7 0.0
15:30 2.6 90.0 998.3 1.6 SW 6.4 0.0
15:35 2.5 89.0 998.1 3.2 WSW 6.4 0.0
15:40 2.4 89.0 998.2 0.0 SW 4.8 0.0
15:45 2.4 88.0 998.2 0.0 SW 4.8 0.0
15:50 2.3 87.0 998.3 1.6 WSW 3.2 0.0
15:55 2.3 87.0 998.4 0.0 WSW 4.8 0.0
16:00 2.3 87.0 998.5 3.2 SW 4.8 0.0
16:05 2.3 87.0 998.5 0.0 SSW 6.4 0.0
16:10 2.2 88.0 998.5 1.6 SSW 3.2 0.0
16:15 2.0 87.0 998.4 1.6 SW 4.8 0.0
16:20 1.8 87.0 998.4 0.0 SW 4.8 0.0
16:25 1.7 87.0 998.5 0.0 SW 3.2 0.0
16:30 1.5 88.0 998.7 3.2 WSW 6.4 0.0
16:35 1.4 90.0 998.7 1.6 SW 8.0 0.0
16:40 1.4 91.0 998.6 1.6 WSW 8.0 0.0
16:45 1.5 92.0 998.6 4.8 WSW 6.4 0.0
16:50 1.6 92.0 998.6 1.6 S 11.3 0.0
16:55 1.7 92.0 998.7 4.8 SSE 11.3 0.0
17:00 1.8 92.0 998.7 4.8 W 6.4 0.0
17:05 1.8 92.0 998.7 4.8 NW 11.3 0.0
17:10 1.8 92.0 998.7 3.2 WNW 11.3 0.0
17:15 1.7 92.0 998.7 1.6 WSW 11.3 0.0
17:20 1.6 92.0 998.8 1.6 SSW 6.4 0.0
17:25 1.6 92.0 998.9 1.6 ESE 11.3 0.0
17:30 1.4 92.0 999.1 1.6 W 4.8 0.0
17:35 1.4 93.0 999.2 0.0 SW 11.3 0.0
17:40 1.4 92.0 999.1 3.2 SSE 11.3 0.0
17:45 1.6 93.0 999.1 3.2 SE 8.0 0.0
17:50 1.6 93.0 999.0 0.0 SSW 8.0 0.0
17:55 1.5 93.0 999.0 6.4 SE 8.0 0.0
18:00 1.4 93.0 999.1 0.0 SW 9.7 0.0
18:05 1.3 93.0 999.3 3.2 WSW 6.4 0.0
18:10 1.3 93.0 999.3 1.6 NE 6.4 0.0
18:15 1.2 93.0 999.4 6.4 WNW 6.4 0.0
18:20 1.1 93.0 999.4 3.2 W 9.7 0.0
18:25 1.1 94.0 999.5 0.0 SW 9.7 0.0
18:30 1.1 94.0 999.6 3.2 SSW 9.7 0.0
18:35 0.9 94.0 999.7 1.6 E 9.7 0.0
18:40 0.9 94.0 999.7 1.6 ESE 6.4 0.0
18:45 0.9 94.0 999.6 0.0 ESE 6.4 0.0
18:50 0.9 94.0 999.6 1.6 SSW 4.8 0.0
18:55 0.8 94.0 999.5 3.2 WSW 4.8 0.0
19:00 0.8 94.0 999.5 0.0 SSE 12.9 0.0
19:05 0.8 94.0 999.5 8.0 SSE 12.9 0.0
19:10 0.7 94.0 999.5 3.2 SSW 8.0 0.0
19:15 0.7 94.0 999.4 1.6 SSE 11.3 0.0
19:20 0.6 94.0 999.5 3.2 SSE 11.3 0.0
19:25 0.6 94.0 999.5 9.7 W 9.7 0.0
19:30 0.6 94.0 999.6 3.2 S 12.9 0.0
19:35 0.6 94.0 999.6 8.0 WSW 22.5 0.0
19:40 0.5 94.0 999.7 14.5 W 22.5 0.0
19:45 0.5 94.0 999.8 6.4 W 20.9 0.0
19:50 0.5 95.0 999.7 4.8 WSW 20.9 0.0
19:55 0.5 95.0 999.7 8.0 WSW 25.7 0.0
20:00 0.5 95.0 999.7 3.2 WSW 25.7 0.0
Màxima 3.0 96.0 1000.7 37.0 WSW 57.9 0.0
Mínima -1.9 87.0 994.8
Total 0.0